Flag for U.S.A. Weather past 2 weeks in Baltimore, Maryland, U.S.A.

Now
64 °F

Scattered clouds.


Feels Like: 64 °F
Forecast: 43 / 68 °F
Wind: 5 mph from North

Location: Baltimore-Washington International Airport

Current Time: Oct 25, 2014 at 7:43:46 PM

Latest Report: Oct 25, 2014 at 6:54 PM


Visibility: 10 mi

Pressure: 29.72 "Hg

Humidity: 43%

Dew point: 41 °F

Location of BaltimoreLocation

Historic Weather in Baltimore — Graph

°F

Baltimore temperature yesterday

Maximum temperature yesterday: 68 °F (at 3:54 PM)
Minimum temperature yesterday: 50 °F (at 11:54 PM)
Average temperature yesterday: 57 °F

Past Weeks' High & Low Weather Summary

 TemperatureHumidityPressure
High77 °F (Oct 14, 2:54 PM)100% (Oct 13, 10:54 PM)30.29 "Hg (Oct 13, 10:54 PM)
Low36 °F (Oct 20, 5:54 AM)31% (Oct 19, 4:54 PM)29.62 "Hg (Oct 18, 4:54 AM)
Average58 °F75%29.94 "Hg
* Reported Oct 10 6:54 PM — Oct 25 6:54 PM, Baltimore, Weather by CustomWeather, © 2014

Note: Actual official high and low records may vary slightly from our data, if they occured in-between our weather recording intervals... More about our weather records

Advertising

Baltimore weather history for previous 24 hours

 ConditionsComfort  
Time TempWeatherWind HumidityBarometerVisibility
6:54 PM
Oct 25
64 °FScattered clouds.5 mph43%29.72 "Hg10 mi
5:54 PM67 °FPassing clouds.3 mph42%29.72 "Hg10 mi
4:54 PM70 °FPassing clouds.10 mph37%29.75 "Hg10 mi
3:54 PM69 °FPartly sunny.8 mph38%29.78 "Hg10 mi
2:54 PM70 °FPassing clouds.13 mph37%29.79 "Hg10 mi
1:54 PM69 °FPassing clouds.17 mph39%29.82 "Hg10 mi
12:54 PM67 °FPassing clouds.12 mph41%29.85 "Hg10 mi
11:54 AM66 °FPassing clouds.7 mph42%29.90 "Hg10 mi
10:54 AM63 °FScattered clouds.9 mph47%29.93 "Hg10 mi
9:54 AM58 °FScattered clouds.6 mph58%29.95 "Hg10 mi
8:54 AM51 °FScattered clouds.No wind71%29.95 "Hg10 mi
7:54 AM46 °FPassing clouds.No wind77%29.94 "Hg10 mi
6:54 AM43 °FClear.No wind82%29.94 "Hg10 mi
5:54 AM46 °FClear.No wind73%29.93 "Hg10 mi
4:54 AM46 °FClear.5 mph73%29.93 "Hg10 mi
3:54 AM45 °FClear.3 mph76%29.93 "Hg10 mi
2:54 AM47 °FClear.5 mph71%29.94 "Hg10 mi
1:54 AM48 °FClear.6 mph68%29.94 "Hg10 mi
12:54 AM50 °FPassing clouds.6 mph63%29.93 "Hg10 mi
11:54 PM
Oct 24
50 °FPassing clouds.7 mph61%29.93 "Hg10 mi
10:54 PM53 °FPassing clouds.6 mph52%29.93 "Hg10 mi
9:54 PM56 °FPassing clouds.7 mph47%29.92 "Hg10 mi
8:54 PM53 °FPartly cloudy.10 mph55%29.92 "Hg10 mi
7:54 PM53 °FPassing clouds.7 mph56%29.91 "Hg10 mi
Weather by CustomWeather, © 2014

See weather overviewHow to use our weather pages